SCP
0 0 0 0 0 0 0 0 0 0 0 0 0 0 0 0 0 0 0 0 0 0 0 0 1 1 1 1 1 1 0 0 1 1 2 3 3 2 1 1 1 1 1
0 0 0 0 0 0 0 0 0 0 0 0 0 0 0 0 0 0 0 0 0 0 0 1 1 1 1 1 1 1 0 1 1 1 2 2 2 2 1 1 1 1 1
0 0 0 0 0 0 0 0 0 0 0 0 0 0 0 0 0 0 0 0 0 0 0 1 1 1 1 1 1 1 1 1 1 1 1 1 1 1 1 1 1 1 1
0 0 0 0 0 0 0 0 0 0 0 0 0 0 0 0 0 0 0 0 0 0 0 0 1 1 1 1 1 1 1 1 1 1 1 1 1 1 1 1 1 1 1
0 0 0 0 0 0 0 0 0 0 0 0 0 0 0 0 0 0 0 0 0 0 0 0 0 1 1 1 1 1 1 1 1 1 1 1 1 1 1 1 1 1 1
0 0 0 0 0 0 0 0 0 0 0 0 0 0 0 0 0 0 0 0 0 0 0 1 1 1 1 1 1 1 1 1 1 1 1 1 1 1 1 1 1 1 1
0 0 0 0 0 0 0 0 0 0 0 0 0 0 0 0 0 0 0 0 0 0 0 1 1 1 1 0 0 0 0 0 0 1 1 1 1 1 1 1 1 1 1
0 0 0 0 0 0 0 0 0 0 0 0 0 0 0 0 0 0 0 0 0 0 0 0 1 1 0 0 0 0 0 0 0 0 0 0 0 0 1 0 0 0 1
0 0 0 0 0 0 0 0 0 0 0 0 0 0 0 0 0 0 0 0 0 0 0 0 0 0 0 0 0 0 0 0 0 0 0 0 0 0 0 0 0 1 1
0 0 0 0 0 0 0 0 0 0 0 0 0 0 0 0 0 0 0 0 0 0 0 0 0 0 0 0 0 0 0 0 0 0 0 0 0 0 1 1 1 1 1
0 0 0 0 0 0 0 0 0 0 0 0 0 0 0 0 0 0 0 0 0 0 0 0 0 0 0 0 0 0 0 0 0 0 0 0 0 0 1 1 1 1 1
0 0 0 0 0 0 0 0 0 0 0 0 0 0 0 0 0 0 0 0 0 0 0 0 0 0 0 0 0 0 0 0 0 0 0 0 0 0 1 1 1 1 1
0 0 0 0 0 0 0 0 0 0 0 0 0 0 0 0 0 0 0 0 0 0 0 0 0 0 0 0 0 0 0 0 0 0 0 0 0 0 0 0 1 1 1
0 0 0 0 0 0 0 0 0 0 0 0 0 0 0 0 0 0 0 0 0 0 0 0 0 0 0 0 0 0 0 0 0 0 0 0 0 0 0 0 0 0 1
0 0 0 0 0 0 0 0 0 0 0 0 0 0 0 0 0 0 0 0 0 0 0 0 0 0 0 0 0 0 0 0 0 0 0 0 0 0 0 0 0 0 0
0 0 0 0 0 0 0 0 0 0 0 0 0 0 0 0 0 0 0 0 0 0 0 0 0 0 0 0 0 0 0 0 0 0 0 0 0 0 0 0 0 0 0
0 0 0 0 0 0 0 0 0 0 0 0 0 0 0 0 0 0 0 0 0 0 0 0 0 0 0 0 0 0 0 0 0 0 0 0 0 0 0 0 0 0 0
0 0 0 0 0 0 0 0 0 0 0 0 0 0 0 0 0 0 0 0 0 0 0 0 0 0 0 0 0 0 0 0 0 0 0 0 0 0 0 0 0 0 0
0 0 0 0 0 0 0 0 0 0 0 0 0 0 0 0 0 0 0 0 0 0 0 0 0 0 0 0 0 0 0 0 0 0 0 0 0 0 0 0 0 0 0
0 0 0 0 0 0 0 0 0 0 0 0 0 0 0 0 0 0 0 0 0 0 0 0 0 0 0 0 0 0 0 0 0 0 0 0 0 0 0 0 0 0 0
0 0 0 0 0 0 0 0 0 0 0 0 0 0 0 0 0 0 0 0 0 0 0 0 0 0 0 0 0 0 0 0 0 0 0 0 0 0 0 0 0 0 0
0 0 0 0 0 0 0 0 0 0 0 0 0 0 0 0 0 0 0 0 0 0 0 0 0 0 0 0 0 0 0 0 0 0 0 0 0 0 0 0 0 0 0
0 0 0 0 0 0 0 0 0 0 0 0 0 0 0 0 0 0 0 0 0 0 0 0 0 0 0 0 0 0 0 0 0 0 0 0 0 0 0 0 0 0 0
0 0 0 0 0 0 0 0 0 0 0 0 0 0 0 0 0 0 0 0 0 0 0 0 0 0 0 0 0 0 0 0 0 0 0 0 0 0 0 0 0 0 0
0 0 0 0 0 0 0 0 0 0 0 0 0 0 0 0 0 0 0 0 0 0 0 0 0 0 0 0 0 0 0 0 0 0 0 0 0 0 0 0 0 0 0
0 0 0 0 0 0 0 0 0 0 0 0 0 0 0 0 0 0 0 0 0 0 0 0 0 0 0 0 0 0 0 0 0 0 0 0 0 0 0 0 0 0 0
Wind_Speed
2 2 2 3 3 3 3 3 4 5 5 5 5 5 5 5 5 4 4 9 9 8 8 8 7 7 8 8 8 9 9 10 10 8 8 8 7 7 7 7 7 7 7
2 2 2 3 3 3 3 3 4 4 4 4 5 5 5 4 4 4 4 6 9 9 9 9 8 8 8 9 9 10 10 10 11 11 10 10 9 8 8 8 7 7 7
3 3 2 2 2 2 3 4 4 4 4 4 5 5 4 4 5 5 5 4 5 8 9 9 9 9 10 10 10 11 11 12 12 12 12 11 10 10 10 9 8 8 8
3 3 2 2 2 2 3 3 3 4 4 4 3 4 4 4 5 5 5 5 4 4 7 11 10 10 10 10 11 11 12 12 13 13 13 12 11 11 11 10 10 9 9
3 3 2 2 3 3 2 3 3 3 3 3 3 4 4 4 4 5 6 6 5 5 4 7 11 11 11 11 11 11 11 12 12 12 12 12 12 11 11 11 10 10 10
2 3 2 3 3 3 3 3 4 3 3 2 4 4 4 4 4 5 5 5 5 6 6 6 5 7 11 10 10 10 11 11 12 12 12 12 12 11 11 10 9 9 9
2 3 2 3 3 3 3 3 3 3 2 2 3 3 4 4 5 4 4 4 5 5 6 6 5 4 5 10 10 10 10 11 11 11 12 11 11 10 10 10 9 9 9
1 2 3 2 3 3 3 3 3 2 1 1 2 2 2 4 4 4 4 4 4 4 5 6 5 5 4 3 7 10 10 10 10 10 11 11 11 10 10 10 10 9 9
1 2 2 3 3 3 3 3 3 3 2 1 1 3 2 1 1 3 3 3 4 3 3 3 5 5 5 4 4 7 10 9 9 10 10 10 11 11 11 10 9 8 8
1 1 2 2 2 2 3 3 3 2 3 1 1 1 1 3 2 1 3 3 3 3 3 3 4 4 4 3 5 8 9 9 9 10 10 10 10 11 10 10 10 10 9
2 1 1 2 2 2 2 2 2 2 2 2 2 1 2 2 2 2 0 2 2 2 2 2 2 3 3 3 3 6 9 9 9 9 9 10 10 10 10 10 10 10 10
2 2 1 1 1 1 2 2 2 2 2 2 2 2 2 2 2 2 2 1 1 2 2 2 2 2 2 2 3 6 7 8 8 9 9 9 9 9 10 10 10 10 10
1 1 0 1 1 1 2 2 2 2 2 2 2 1 1 2 2 3 3 2 0 1 2 2 2 1 1 2 2 5 6 7 8 8 9 9 9 9 10 10 10 10 10
1 1 0 1 1 1 2 2 1 1 1 2 2 2 1 1 2 3 3 4 2 1 2 2 2 1 1 1 2 3 3 6 7 7 8 8 8 9 9 9 10 10 11
1 0 1 1 1 1 2 2 1 1 1 1 1 2 1 1 1 2 2 3 4 2 1 2 1 2 1 1 2 2 2 5 6 6 6 7 7 7 8 9 9 10 10
0 0 0 1 1 1 2 2 1 1 2 1 1 2 1 1 1 1 2 2 2 4 2 1 1 1 1 1 2 2 2 4 5 5 6 6 7 7 7 8 8 8 9
1 1 1 1 1 1 1 2 1 2 2 1 0 1 1 1 1 1 2 2 2 2 3 1 1 1 1 2 2 2 2 2 2 4 5 5 6 6 6 6 7 7 7
1 1 1 1 1 1 2 2 2 2 2 2 1 1 1 2 2 1 2 2 1 2 3 2 0 1 1 1 1 2 2 2 1 3 3 4 4 5 5 5 5 6 6
1 1 2 2 2 1 2 2 2 2 2 2 2 2 2 2 2 1 2 2 1 2 2 3 1 0 1 1 1 2 2 1 1 2 2 2 3 3 3 3 3 4 4
2 2 2 2 2 2 2 2 2 2 2 1 1 2 2 3 3 3 2 2 2 2 2 2 1 0 0 0 1 1 1 1 1 2 2 2 2 2 2 2 2 2 3
2 2 2 2 2 2 2 2 2 2 2 1 1 1 2 3 4 4 3 3 3 3 2 2 1 0 0 1 1 1 1 0 1 1 1 1 1 1 1 2 1 1 1
2 2 2 2 2 2 3 4 4 3 2 2 1 1 1 2 3 4 4 5 6 5 4 3 2 2 3 3 2 2 2 1 1 1 0 1 0 1 2 1 2 1 1
2 2 2 2 2 3 4 4 5 3 3 2 2 1 1 1 2 2 2 3 4 5 6 5 4 4 4 4 4 3 3 3 2 1 1 1 1 1 2 2 3 2 1
3 3 3 3 2 3 4 4 5 3 2 2 2 2 2 2 2 3 2 2 1 2 3 3 4 5 4 4 5 5 4 2 1 0 2 1 1 1 2 2 3 2 2
3 3 2 3 3 3 4 5 5 2 2 2 2 2 2 2 4 5 3 2 1 2 2 3 4 3 3 4 5 3 2 2 1 2 2 2 1 1 1 2 2 2 2
3 3 2 2 3 3 4 5 5 3 2 1 1 1 3 4 4 5 4 4 3 3 1 1 1 2 1 2 5 4 4 3 2 2 2 2 1 1 1 1 2 2 1
Wind_Direction
73 66 56 55 54 60 69 68 67 66 60 53 54 55 46 39 33 28 18 31 39 46 51 52 52 52 54 54 53 51 47 40 41 56 66 63 61 63 61 62 64 67 67
101 90 76 65 57 61 71 75 74 72 64 62 56 51 47 38 33 28 23 20 30 40 46 49 52 55 57 57 56 54 51 47 49 55 59 61 61 61 59 62 64 64 64
110 107 95 78 68 70 79 78 73 70 68 63 54 47 45 38 36 31 28 27 23 33 42 48 50 56 61 62 61 58 55 53 54 56 58 60 60 59 59 60 63 63 61
110 108 104 91 85 83 83 84 75 72 63 59 53 40 40 35 34 36 37 34 31 29 32 42 48 54 58 61 62 62 61 58 56 55 54 56 59 59 59 58 61 60 60
109 112 111 105 98 90 83 93 78 85 79 68 65 51 39 35 29 38 39 37 34 33 31 35 42 47 54 57 60 61 62 61 59 57 57 57 58 58 58 57 59 60 60
110 117 113 115 111 101 86 87 89 74 78 75 73 58 42 36 36 36 34 35 34 38 40 42 38 36 46 54 58 59 61 60 60 60 59 58 59 58 56 56 58 61 63
109 120 123 121 122 118 122 120 107 90 70 77 77 50 30 36 43 34 29 35 34 36 42 44 43 41 35 40 46 55 60 61 60 60 59 58 58 58 56 54 54 58 59
115 133 136 137 134 124 123 125 122 110 79 62 98 88 31 11 13 24 25 36 30 34 41 44 43 42 37 32 37 48 52 57 60 60 58 56 56 55 54 52 48 51 57
90 113 140 144 146 148 156 157 149 139 139 59 77 125 129 182 335 351 13 28 27 33 28 32 41 37 37 34 27 35 46 50 56 59 58 56 54 53 51 48 45 51 59
69 111 143 145 148 152 162 174 163 150 144 149 83 69 127 149 142 356 345 3 21 31 24 31 30 30 33 33 35 41 46 49 52 56 56 55 53 52 48 42 45 52 59
24 54 135 137 143 151 164 165 157 161 157 161 160 144 101 82 107 139 237 335 0 5 19 22 25 24 26 32 37 49 51 50 51 53 54 54 52 50 47 44 47 51 56
2 18 92 127 144 152 163 169 164 163 165 158 162 157 155 151 163 148 163 210 341 336 6 19 23 13 21 28 45 56 56 55 53 53 52 51 50 49 48 46 47 49 53
333 330 55 140 156 171 161 148 146 154 156 159 171 181 180 172 155 150 143 153 87 335 355 4 4 4 20 29 35 56 60 61 58 55 53 50 48 47 46 43 44 46 49
247 259 168 163 171 162 147 136 135 153 140 156 166 165 173 186 163 161 156 147 121 12 3 327 337 354 359 31 38 51 56 66 65 60 57 55 51 48 45 42 43 45 46
249 222 174 182 170 152 145 138 143 157 132 153 169 159 166 191 176 170 156 153 148 154 274 300 324 327 334 61 48 65 63 68 67 64 60 57 55 53 53 51 49 47 47
222 148 126 148 141 135 140 138 140 136 122 148 152 136 150 168 150 147 151 149 149 152 176 243 259 307 353 57 72 72 74 75 64 62 61 62 62 60 58 57 53 49 47
184 174 168 148 134 127 133 137 148 146 144 147 135 140 153 138 124 127 128 128 131 134 153 237 312 353 41 40 32 42 64 55 52 64 64 68 68 62 59 57 52 47 44
192 187 162 144 144 136 140 151 162 161 160 165 180 144 166 135 125 127 128 135 142 144 149 172 309 13 27 30 48 55 43 54 52 54 67 70 70 65 59 56 53 49 47
186 165 152 161 173 166 164 167 161 162 166 178 179 172 183 149 149 144 138 138 135 121 122 145 166 67 29 34 54 47 47 21 29 42 55 60 68 69 58 54 53 50 47
183 175 170 179 180 173 170 165 151 150 151 159 173 183 183 174 176 168 159 157 137 120 115 123 131 99 76 38 104 116 33 23 16 16 25 40 38 38 26 38 46 42 38
196 184 164 173 171 168 185 171 162 151 149 151 168 188 186 177 176 169 162 164 149 140 136 135 153 136 207 179 198 198 184 351 351 2 6 3 5 344 320 315 321 360 25
195 170 178 180 182 201 194 185 167 157 154 159 177 192 184 183 171 171 169 164 160 160 170 170 184 199 223 212 195 181 168 145 282 299 147 309 41 277 284 271 290 267 289
188 186 196 182 191 206 195 184 176 165 168 184 192 191 187 161 168 163 161 163 175 183 179 178 187 211 212 207 180 179 184 184 210 223 159 270 280 272 276 285 277 257 257
188 196 202 195 194 211 193 182 175 165 173 201 202 192 185 201 172 156 144 141 200 226 207 201 204 216 210 195 185 187 187 177 210 204 147 224 258 262 292 290 284 268 270
202 202 195 191 197 220 199 185 166 152 169 217 220 204 193 202 192 166 150 168 236 269 247 214 216 219 205 185 164 134 140 146 234 244 179 188 230 265 291 293 296 305 294
207 201 198 198 198 215 204 192 174 159 174 208 223 218 205 202 196 178 175 178 214 254 254 273 266 269 255 207 180 177 180 181 192 234 200 180 196 177 287 281 296 307 303